timestamp,wind_dir_avg,wind_spd_avg,wind_spd_max_dir,wind_spd_gust,battery_voltage,lat,long
2023-11-24 00:04:00+00:00,130.0,4.59,134.0,5.58,12.41,47.59359,-54.27349
2023-11-24 00:14:01+00:00,132.0,4.5,121.0,5.77,12.33,47.59359,-54.27349
2023-11-24 00:24:01+00:00,145.0,6.71,140.0,7.94,12.33,47.59359,-54.27349
2023-11-24 00:34:01+00:00,131.0,3.43,137.0,4.5,12.33,47.59359,-54.27349
2023-11-24 00:44:01+00:00,112.0,2.83,120.0,4.51,12.33,47.59359,-54.27349
2023-11-24 00:54:01+00:00,127.0,4.34,127.0,5.44,12.33,47.59359,-54.27349
2023-11-24 01:04:01+00:00,133.0,5.04,131.0,7.18,12.33,47.59359,-54.27349
2023-11-24 01:14:01+00:00,107.0,2.42,95.0,5.9,12.33,47.59359,-54.27349
2023-11-24 01:24:01+00:00,115.0,5.29,107.0,7.09,12.33,47.59359,-54.27349
2023-11-24 01:34:01+00:00,114.0,5.47,124.0,7.94,12.33,47.59359,-54.27349
2023-11-24 01:44:01+00:00,125.0,5.92,122.0,7.69,12.33,47.59359,-54.27349
2023-11-24 01:54:01+00:00,128.0,6.9,126.0,9.36,12.33,47.59359,-54.27349
2023-11-24 02:04:01+00:00,116.0,6.85,127.0,8.69,12.33,47.59359,-54.27349
2023-11-24 02:14:01+00:00,115.0,5.26,128.0,7.49,12.33,47.59359,-54.27349
2023-11-24 02:24:01+00:00,123.0,6.42,117.0,8.03,12.33,47.59359,-54.27349
2023-11-24 02:34:01+00:00,124.0,6.7,124.0,8.87,12.33,47.59359,-54.27349
2023-11-24 02:44:01+00:00,122.0,8.65,122.0,10.36,12.33,47.59359,-54.27349
2023-11-24 02:54:01+00:00,121.0,7.96,110.0,9.41,12.33,47.59359,-54.27349
2023-11-24 03:04:01+00:00,122.0,8.4,134.0,10.72,12.33,47.59359,-54.27349
2023-11-24 03:14:00+00:00,97.0,3.33,124.0,8.01,12.33,47.59359,-54.27349
2023-11-24 03:24:00+00:00,88.0,2.48,90.0,4.01,12.33,47.59359,-54.27349
2023-11-24 03:34:00+00:00,74.0,1.92,79.0,2.91,12.33,47.59359,-54.27349
2023-11-24 03:44:00+00:00,72.0,2.14,70.0,4.26,12.33,47.59359,-54.27349
2023-11-24 03:54:00+00:00,65.0,2.24,73.0,3.58,12.33,47.59359,-54.27349
2023-11-24 04:04:00+00:00,51.0,1.65,71.0,4.0,12.33,47.59359,-54.27349
2023-11-24 04:14:00+00:00,92.0,0.81,112.0,1.3,12.33,47.59359,-54.27349
2023-11-24 04:24:00+00:00,159.0,5.09,179.0,9.67,12.33,47.59359,-54.27349
2023-11-24 04:34:00+00:00,126.0,7.24,125.0,9.14,12.33,47.59359,-54.27349
2023-11-24 04:44:00+00:00,127.0,7.32,118.0,9.53,12.33,47.59359,-54.27349
2023-11-24 04:54:00+00:00,138.0,11.25,126.0,13.52,12.33,47.59359,-54.27349
2023-11-24 05:04:00+00:00,142.0,10.73,147.0,12.6,12.33,47.59359,-54.27349
2023-11-24 05:14:00+00:00,143.0,10.96,145.0,13.07,12.33,47.59359,-54.27349
2023-11-24 05:24:00+00:00,139.0,11.24,127.0,14.67,12.33,47.59359,-54.27349
2023-11-24 05:34:00+00:00,146.0,11.46,150.0,13.74,12.33,47.59359,-54.27349
2023-11-24 05:44:00+00:00,142.0,11.57,144.0,14.29,12.33,47.59359,-54.27349
2023-11-24 05:54:00+00:00,147.0,11.86,147.0,14.12,12.33,47.59359,-54.27349
2023-11-24 06:04:00+00:00,146.0,12.1,144.0,13.97,12.33,47.59359,-54.27349
2023-11-24 06:14:01+00:00,143.0,13.43,131.0,16.99,12.33,47.59359,-54.27349
2023-11-24 06:24:01+00:00,146.0,13.71,134.0,17.84,12.33,47.59359,-54.27349
2023-11-24 06:34:01+00:00,148.0,14.7,145.0,18.04,12.33,47.59359,-54.27349
2023-11-24 06:44:01+00:00,148.0,13.73,144.0,15.32,12.33,47.59359,-54.27349
2023-11-24 06:54:01+00:00,152.0,15.08,151.0,17.74,12.33,47.59359,-54.27349
2023-11-24 07:04:01+00:00,150.0,14.37,156.0,17.23,12.33,47.59359,-54.27349
2023-11-24 07:14:00+00:00,148.0,13.61,142.0,16.38,12.33,47.59359,-54.27349
2023-11-24 07:24:00+00:00,147.0,14.51,135.0,17.81,12.33,47.59359,-54.27349
2023-11-24 07:34:00+00:00,154.0,15.8,156.0,18.15,12.33,47.59359,-54.27349
2023-11-24 07:44:00+00:00,151.0,14.04,153.0,16.37,12.33,47.59359,-54.27349
2023-11-24 07:54:00+00:00,153.0,14.56,155.0,17.83,12.33,47.59359,-54.27349
2023-11-24 08:04:00+00:00,151.0,14.85,152.0,18.04,12.33,47.59359,-54.27349
2023-11-24 08:14:00+00:00,157.0,14.13,157.0,15.63,12.25,47.59359,-54.27349
2023-11-24 08:24:00+00:00,152.0,14.22,139.0,17.93,12.25,47.59359,-54.27349
2023-11-24 08:34:00+00:00,157.0,14.67,160.0,18.0,12.25,47.59359,-54.27349
2023-11-24 08:44:00+00:00,156.0,16.34,152.0,19.1,12.25,47.59359,-54.27349
2023-11-24 08:54:00+00:00,158.0,15.66,158.0,18.11,12.25,47.59359,-54.27349
2023-11-24 09:04:00+00:00,157.0,14.55,159.0,17.84,12.25,47.59359,-54.27349
2023-11-24 09:14:00+00:00,159.0,14.5,154.0,17.25,12.25,47.59359,-54.27349
2023-11-24 09:24:00+00:00,159.0,14.39,152.0,16.65,12.25,47.59359,-54.27349
2023-11-24 09:34:00+00:00,163.0,17.25,163.0,19.68,12.25,47.59359,-54.27349
2023-11-24 09:44:00+00:00,168.0,15.27,165.0,18.37,12.25,47.59359,-54.27349
2023-11-24 09:54:00+00:00,168.0,16.27,171.0,19.6,12.25,47.59359,-54.27349
2023-11-24 10:04:00+00:00,172.0,14.63,172.0,17.05,12.25,47.59359,-54.27349
2023-11-24 10:14:00+00:00,171.0,14.8,169.0,19.03,12.25,47.59359,-54.27349
2023-11-24 10:24:00+00:00,171.0,16.91,173.0,19.23,12.25,47.59359,-54.27349
2023-11-24 10:34:00+00:00,171.0,15.5,179.0,17.86,12.25,47.59359,-54.27349
2023-11-24 10:44:00+00:00,173.0,17.3,174.0,19.53,12.25,47.59359,-54.27349
2023-11-24 10:54:00+00:00,175.0,15.96,179.0,18.16,12.25,47.59359,-54.27349
2023-11-24 11:04:00+00:00,175.0,16.34,170.0,18.75,12.25,47.59359,-54.27349
2023-11-24 11:14:00+00:00,178.0,15.0,176.0,17.83,12.17,47.59359,-54.27349
2023-11-24 11:24:00+00:00,175.0,15.51,175.0,18.54,12.17,47.59359,-54.27349
2023-11-24 11:34:00+00:00,176.0,13.66,178.0,15.84,12.17,47.59359,-54.27349
2023-11-24 11:44:00+00:00,176.0,14.33,181.0,16.43,12.17,47.59359,-54.27349
2023-11-24 11:54:00+00:00,180.0,13.33,183.0,16.15,12.17,47.59359,-54.27349
2023-11-24 12:04:00+00:00,181.0,12.13,185.0,13.87,12.17,47.59359,-54.27349
2023-11-24 12:14:01+00:00,181.0,13.08,189.0,15.21,12.33,47.59359,-54.27349
2023-11-24 12:24:01+00:00,184.0,12.69,188.0,15.2,12.33,47.59359,-54.27349
2023-11-24 12:34:01+00:00,194.0,12.44,192.0,13.6,12.33,47.59359,-54.27349
2023-11-24 12:44:01+00:00,209.0,11.91,211.0,13.76,12.33,47.59359,-54.27349
2023-11-24 12:54:01+00:00,215.0,13.43,218.0,15.55,12.33,47.59359,-54.27349
2023-11-24 13:04:01+00:00,215.0,13.38,219.0,15.34,12.33,47.59359,-54.27349
2023-11-24 13:14:01+00:00,214.0,12.92,216.0,14.62,12.57,47.59359,-54.27349
2023-11-24 13:24:01+00:00,216.0,10.05,217.0,11.67,12.57,47.59359,-54.27349
2023-11-24 13:34:01+00:00,213.0,10.26,216.0,11.77,12.57,47.59359,-54.27349
2023-11-24 13:44:01+00:00,213.0,9.45,214.0,10.59,12.57,47.59359,-54.27349
2023-11-24 13:54:01+00:00,215.0,8.21,226.0,9.52,12.57,47.59359,-54.27349
2023-11-24 14:04:01+00:00,217.0,7.46,214.0,8.65,12.57,47.59359,-54.27349
2023-11-24 14:14:00+00:00,218.0,7.35,220.0,8.06,12.97,47.59359,-54.27349
2023-11-24 14:24:00+00:00,229.0,6.15,229.0,6.84,12.97,47.59359,-54.27349
2023-11-24 14:34:00+00:00,255.0,6.46,255.0,7.22,12.97,47.59359,-54.27349
2023-11-24 14:44:00+00:00,273.0,8.32,277.0,9.69,12.97,47.59359,-54.27349
2023-11-24 14:54:00+00:00,279.0,9.43,279.0,10.66,12.97,47.59359,-54.27349
2023-11-24 15:04:00+00:00,283.0,7.47,292.0,8.85,12.97,47.59359,-54.27349
2023-11-24 15:14:00+00:00,284.0,7.31,287.0,9.06,13.68,47.59359,-54.27349
2023-11-24 15:24:00+00:00,276.0,7.33,271.0,8.36,13.68,47.59359,-54.27349
2023-11-24 15:34:00+00:00,302.0,8.23,302.0,9.86,13.68,47.59359,-54.27349
2023-11-24 15:44:00+00:00,297.0,7.24,297.0,8.69,13.68,47.59359,-54.27349
2023-11-24 15:54:00+00:00,285.0,9.93,287.0,11.08,13.68,47.59359,-54.27349
2023-11-24 16:04:00+00:00,294.0,7.84,291.0,9.05,13.68,47.59359,-54.27349
2023-11-24 16:14:00+00:00,315.0,9.6,309.0,11.09,13.76,47.59359,-54.27349
2023-11-24 16:24:00+00:00,303.0,10.42,309.0,11.45,13.76,47.59359,-54.27349
2023-11-24 16:34:00+00:00,305.0,9.46,306.0,12.01,13.76,47.59359,-54.27349
2023-11-24 16:44:00+00:00,290.0,10.01,285.0,12.27,13.76,47.59359,-54.27349
2023-11-24 16:54:00+00:00,316.0,9.06,309.0,10.86,13.76,47.59359,-54.27349
2023-11-24 17:04:00+00:00,302.0,10.5,303.0,13.17,13.76,47.59359,-54.27349
2023-11-24 17:14:01+00:00,307.0,9.53,308.0,10.83,13.76,47.59359,-54.27349
2023-11-24 17:24:01+00:00,306.0,7.38,306.0,8.55,13.76,47.59359,-54.27349
2023-11-24 17:34:01+00:00,299.0,8.35,295.0,9.7,13.76,47.59359,-54.27349
2023-11-24 17:44:01+00:00,288.0,7.57,292.0,8.23,13.76,47.59359,-54.27349
2023-11-24 17:54:01+00:00,301.0,8.22,306.0,9.08,13.76,47.59359,-54.27349
2023-11-24 18:04:01+00:00,295.0,10.88,288.0,15.37,13.76,47.59359,-54.27349
2023-11-24 18:14:01+00:00,300.0,8.81,296.0,9.91,13.44,47.59359,-54.27349
2023-11-24 18:24:01+00:00,301.0,7.7,303.0,9.1,13.44,47.59359,-54.27349
2023-11-24 18:34:01+00:00,295.0,10.65,288.0,14.94,13.44,47.59359,-54.27349
2023-11-24 18:44:01+00:00,284.0,13.29,281.0,15.43,13.44,47.59359,-54.27349
2023-11-24 18:54:01+00:00,295.0,10.25,287.0,14.49,13.44,47.59359,-54.27349
2023-11-24 19:04:01+00:00,301.0,7.94,300.0,9.11,13.44,47.59359,-54.27349
2023-11-24 19:14:00+00:00,289.0,6.39,292.0,7.89,13.29,47.59359,-54.27349
2023-11-24 19:24:00+00:00,287.0,7.83,302.0,8.7,13.29,47.59359,-54.27349
2023-11-24 19:34:00+00:00,287.0,7.56,294.0,8.65,13.29,47.59359,-54.27349
2023-11-24 19:44:00+00:00,283.0,6.73,288.0,7.52,13.29,47.59359,-54.27349
2023-11-24 19:54:00+00:00,278.0,6.44,280.0,7.76,13.29,47.59359,-54.27349
2023-11-24 20:04:00+00:00,280.0,7.79,284.0,8.28,13.29,47.59359,-54.27349
2023-11-24 20:14:00+00:00,282.0,7.84,287.0,8.87,12.81,47.59359,-54.27349
2023-11-24 20:24:00+00:00,276.0,5.87,278.0,6.91,12.81,47.59359,-54.27349
2023-11-24 20:34:00+00:00,279.0,7.72,280.0,8.6,12.81,47.59359,-54.27349
2023-11-24 20:44:00+00:00,287.0,7.23,290.0,7.8,12.81,47.59359,-54.27349
2023-11-24 20:54:00+00:00,283.0,7.4,278.0,8.65,12.81,47.59359,-54.27349
2023-11-24 21:04:00+00:00,270.0,5.76,272.0,6.55,12.81,47.59359,-54.27349
2023-11-24 21:14:01+00:00,274.0,5.83,266.0,6.9,12.49,47.59359,-54.27349
2023-11-24 21:24:01+00:00,269.0,5.68,270.0,6.32,12.49,47.59359,-54.27349
2023-11-24 21:34:01+00:00,258.0,6.99,260.0,7.83,12.49,47.59359,-54.27349
2023-11-24 21:44:01+00:00,237.0,8.51,236.0,9.53,12.49,47.59359,-54.27349
2023-11-24 21:54:01+00:00,245.0,8.64,239.0,9.83,12.49,47.59359,-54.27349
2023-11-24 22:04:01+00:00,264.0,8.88,253.0,10.39,12.49,47.59359,-54.27349
2023-11-24 22:14:00+00:00,255.0,8.65,252.0,9.65,12.41,47.59359,-54.27349
2023-11-24 22:24:00+00:00,258.0,10.63,253.0,12.95,12.41,47.59359,-54.27349
2023-11-24 22:34:00+00:00,289.0,9.54,292.0,11.13,12.41,47.59359,-54.27349
2023-11-24 22:44:00+00:00,283.0,8.57,290.0,9.73,12.41,47.59359,-54.27349
2023-11-24 22:54:00+00:00,277.0,8.17,276.0,10.37,12.41,47.59359,-54.27349
2023-11-24 23:04:00+00:00,284.0,7.79,279.0,8.43,12.41,47.59359,-54.27349
2023-11-24 23:14:00+00:00,286.0,8.15,291.0,9.06,12.41,47.59359,-54.27349
2023-11-24 23:24:00+00:00,282.0,7.31,280.0,8.37,12.41,47.59359,-54.27349
2023-11-24 23:34:00+00:00,279.0,7.78,283.0,9.23,12.41,47.59359,-54.27349
2023-11-24 23:44:00+00:00,291.0,7.93,289.0,8.89,12.41,47.59359,-54.27349
2023-11-24 23:54:00+00:00,292.0,8.58,287.0,10.18,12.41,47.59359,-54.27349
